User: anonymous   Login
Location: Vancouver
(49.2500°N, 123.1330°W)
Time: 21:45:32
(UTC-07:00)
Language:

Iridium 21 - Orbit

View from above orbital plane
View from above orbital plane
View from above satellite
View from above satellite

Ground track
Ground track

The orbit data is extracted from the following two-line orbital elements,

1 25778U 99032B   17207.11908527 -.00000037 +00000-0 -20150-4 0  9996
2 25778 086.3964 207.6889 0002234 081.8101 278.3348 14.34215881953613
Epoch (UTC): 26 July 2017 02:51:28
Eccentricity: 0.0002234
inclination: 86.3964°
perigee height: 776 km
apogee height: 779 km
right ascension of ascending node: 207.6889°
argument of perigee: 81.8101°
revolutions per day: 14.34215881
mean anomaly at epoch: 278.3348°
orbit number at epoch: 95361

The dashed part of the orbit path shows where the satellite is in the earth's shadow,  

DLR